Year,Month,Day,Hour,Minute,Value (Times are PST for temperature in C)
2013,08,09,00,00,14.80
2013,08,09,00,01,14.80
2013,08,09,00,02,14.80
2013,08,09,00,03,14.80
2013,08,09,00,04,14.80
2013,08,09,00,05,14.80
2013,08,09,00,06,14.80
2013,08,09,00,07,14.80
2013,08,09,00,08,14.80
2013,08,09,00,09,14.70
2013,08,09,00,10,14.70
2013,08,09,00,11,14.70
2013,08,09,00,12,14.70
2013,08,09,00,13,14.70
2013,08,09,00,14,14.70
2013,08,09,00,15,14.70
2013,08,09,00,16,14.70
2013,08,09,00,17,14.60
2013,08,09,00,18,14.60
2013,08,09,00,19,14.60
2013,08,09,00,20,14.60
2013,08,09,00,21,14.60
2013,08,09,00,22,14.60
2013,08,09,00,23,14.60
2013,08,09,00,24,14.60
2013,08,09,00,25,14.60
2013,08,09,00,26,14.60
2013,08,09,00,27,14.50
2013,08,09,00,28,14.50
2013,08,09,00,29,14.50
2013,08,09,00,30,14.50
2013,08,09,00,31,14.50
2013,08,09,00,32,14.50
2013,08,09,00,33,14.50
2013,08,09,00,34,14.50
2013,08,09,00,35,14.50
2013,08,09,00,36,14.40
2013,08,09,00,37,14.40
2013,08,09,00,38,14.40
2013,08,09,00,39,14.40
2013,08,09,00,40,14.50
2013,08,09,00,41,14.50
2013,08,09,00,42,14.50
2013,08,09,00,43,14.60
2013,08,09,00,44,14.60
2013,08,09,00,45,14.60
2013,08,09,00,46,14.60
2013,08,09,00,47,14.60
2013,08,09,00,48,14.60
2013,08,09,00,49,14.50
2013,08,09,00,50,14.50
2013,08,09,00,51,14.50
2013,08,09,00,52,14.50
2013,08,09,00,53,14.50
2013,08,09,00,54,14.50
2013,08,09,00,55,14.50
2013,08,09,00,56,14.50
2013,08,09,00,57,14.50
2013,08,09,00,58,14.50
2013,08,09,00,59,14.50
2013,08,09,01,00,14.50
2013,08,09,01,01,14.50
2013,08,09,01,02,14.50
2013,08,09,01,03,14.50
2013,08,09,01,04,14.50
2013,08,09,01,05,14.50
2013,08,09,01,06,14.50
2013,08,09,01,07,14.50
2013,08,09,01,08,14.60
2013,08,09,01,09,14.60
2013,08,09,01,10,14.60
2013,08,09,01,11,14.60
2013,08,09,01,12,14.60
2013,08,09,01,13,14.60
2013,08,09,01,14,14.60
2013,08,09,01,15,14.60
2013,08,09,01,16,14.60
2013,08,09,01,17,14.60
2013,08,09,01,18,14.60
2013,08,09,01,19,14.60
2013,08,09,01,20,14.60
2013,08,09,01,21,14.50
2013,08,09,01,22,14.50
2013,08,09,01,23,14.50
2013,08,09,01,24,14.50
2013,08,09,01,25,14.50
2013,08,09,01,26,14.50
2013,08,09,01,27,14.50
2013,08,09,01,28,14.40
2013,08,09,01,29,14.40
2013,08,09,01,30,14.30
2013,08,09,01,31,14.20
2013,08,09,01,32,14.10
2013,08,09,01,33,14.00
2013,08,09,01,34,13.90
2013,08,09,01,35,13.90
2013,08,09,01,36,13.80
2013,08,09,01,37,13.80
2013,08,09,01,38,13.70
2013,08,09,01,39,13.70
2013,08,09,01,40,13.70
2013,08,09,01,41,13.70
2013,08,09,01,42,13.60
2013,08,09,01,43,13.60
2013,08,09,01,44,13.60
2013,08,09,01,45,13.60
2013,08,09,01,46,13.60
2013,08,09,01,47,13.60
2013,08,09,01,48,13.50
2013,08,09,01,49,13.50
2013,08,09,01,50,13.50
2013,08,09,01,51,13.50
2013,08,09,01,52,13.50
2013,08,09,01,53,13.40
2013,08,09,01,54,13.40
2013,08,09,01,55,13.40
2013,08,09,01,56,13.40
2013,08,09,01,57,13.40
2013,08,09,01,58,13.30
2013,08,09,01,59,13.30
2013,08,09,02,00,13.30
2013,08,09,02,01,13.30
2013,08,09,02,02,13.30
2013,08,09,02,03,13.30
2013,08,09,02,04,13.30
2013,08,09,02,05,13.20
2013,08,09,02,06,13.20
2013,08,09,02,07,13.20
2013,08,09,02,08,13.20
2013,08,09,02,09,13.10
2013,08,09,02,10,13.10
2013,08,09,02,11,13.10
2013,08,09,02,12,13.00
2013,08,09,02,13,13.00
2013,08,09,02,14,13.00
2013,08,09,02,15,13.00
2013,08,09,02,16,12.90
2013,08,09,02,17,12.90
2013,08,09,02,18,12.90
2013,08,09,02,19,12.90
2013,08,09,02,20,12.90
2013,08,09,02,21,12.90
2013,08,09,02,22,12.80
2013,08,09,02,23,12.80
2013,08,09,02,24,12.80
2013,08,09,02,25,12.80
2013,08,09,02,26,12.80
2013,08,09,02,27,12.80
2013,08,09,02,28,12.80
2013,08,09,02,29,12.80
2013,08,09,02,30,12.80
2013,08,09,02,31,12.80
2013,08,09,02,32,12.80
2013,08,09,02,33,12.80
2013,08,09,02,34,12.80
2013,08,09,02,35,12.70
2013,08,09,02,36,12.70
2013,08,09,02,37,12.70
2013,08,09,02,38,12.70
2013,08,09,02,39,12.70
2013,08,09,02,40,12.70
2013,08,09,02,41,12.70
2013,08,09,02,42,12.60
2013,08,09,02,43,12.60
2013,08,09,02,44,12.60
2013,08,09,02,45,12.60
2013,08,09,02,46,12.60
2013,08,09,02,47,12.50
2013,08,09,02,48,12.50
2013,08,09,02,49,12.50
2013,08,09,02,50,12.50
2013,08,09,02,51,12.50
2013,08,09,02,52,12.50
2013,08,09,02,53,12.50
2013,08,09,02,54,12.50
2013,08,09,02,55,12.50
2013,08,09,02,56,12.40
2013,08,09,02,57,12.40
2013,08,09,02,58,12.40
2013,08,09,02,59,12.40
2013,08,09,03,00,12.40
2013,08,09,03,01,12.40
2013,08,09,03,02,12.40
2013,08,09,03,03,12.40
2013,08,09,03,04,12.40
2013,08,09,03,05,12.40
2013,08,09,03,06,12.40
2013,08,09,03,07,12.30
2013,08,09,03,08,12.30
2013,08,09,03,09,12.30
2013,08,09,03,10,12.30
2013,08,09,03,11,12.30
2013,08,09,03,12,12.30
2013,08,09,03,13,12.30
2013,08,09,03,14,12.30
2013,08,09,03,15,12.30
2013,08,09,03,16,12.30
2013,08,09,03,17,12.30
2013,08,09,03,18,12.30
2013,08,09,03,19,12.30
2013,08,09,03,20,12.30
2013,08,09,03,21,12.30
2013,08,09,03,22,12.30
2013,08,09,03,23,12.20
2013,08,09,03,24,12.20
2013,08,09,03,25,12.20
2013,08,09,03,26,12.20
2013,08,09,03,27,12.20
2013,08,09,03,28,12.10
2013,08,09,03,29,12.10
2013,08,09,03,30,12.10
2013,08,09,03,31,12.10
2013,08,09,03,32,12.10
2013,08,09,03,33,12.10
2013,08,09,03,34,12.10
2013,08,09,03,35,12.10
2013,08,09,03,36,12.10
2013,08,09,03,37,12.00
2013,08,09,03,38,12.00
2013,08,09,03,39,12.00
2013,08,09,03,40,12.00
2013,08,09,03,41,12.00
2013,08,09,03,42,12.00
2013,08,09,03,43,11.90
2013,08,09,03,44,11.90
2013,08,09,03,45,11.90
2013,08,09,03,46,11.90
2013,08,09,03,47,11.90
2013,08,09,03,48,11.80
2013,08,09,03,49,11.80
2013,08,09,03,50,11.80
2013,08,09,03,51,11.80
2013,08,09,03,52,11.80
2013,08,09,03,53,11.90
2013,08,09,03,54,11.90
2013,08,09,03,55,11.90
2013,08,09,03,56,12.00
2013,08,09,03,57,12.00
2013,08,09,03,58,12.00
2013,08,09,03,59,12.00
2013,08,09,04,00,12.00
2013,08,09,04,01,12.00
2013,08,09,04,02,11.90
2013,08,09,04,03,11.90
2013,08,09,04,04,11.90
2013,08,09,04,05,11.90
2013,08,09,04,06,11.80
2013,08,09,04,07,11.80
2013,08,09,04,08,11.80
2013,08,09,04,09,11.80
2013,08,09,04,10,11.80
2013,08,09,04,11,11.80
2013,08,09,04,12,11.80
2013,08,09,04,13,11.80
2013,08,09,04,14,11.80
2013,08,09,04,15,11.80
2013,08,09,04,16,11.90
2013,08,09,04,17,11.90
2013,08,09,04,18,11.90
2013,08,09,04,19,11.90
2013,08,09,04,20,11.80
2013,08,09,04,21,11.80
2013,08,09,04,22,11.80
2013,08,09,04,23,11.80
2013,08,09,04,24,11.80
2013,08,09,04,25,11.80
2013,08,09,04,26,11.80
2013,08,09,04,27,11.80
2013,08,09,04,28,11.80
2013,08,09,04,29,11.80
2013,08,09,04,30,11.80
2013,08,09,04,31,11.80
2013,08,09,04,32,11.80
2013,08,09,04,33,11.80
2013,08,09,04,34,11.80
2013,08,09,04,35,11.80
2013,08,09,04,36,11.70
2013,08,09,04,37,11.70
2013,08,09,04,38,11.70
2013,08,09,04,39,11.70
2013,08,09,04,40,11.70
2013,08,09,04,41,11.70
2013,08,09,04,42,11.60
2013,08,09,04,43,11.60
2013,08,09,04,44,11.60
2013,08,09,04,45,11.60
2013,08,09,04,46,11.60
2013,08,09,04,47,11.60
2013,08,09,04,48,11.60
2013,08,09,04,49,11.60
2013,08,09,04,50,11.60
2013,08,09,04,51,11.60
2013,08,09,04,52,11.60
2013,08,09,04,53,11.60
2013,08,09,04,54,11.60
2013,08,09,04,55,11.60
2013,08,09,04,56,11.60
2013,08,09,04,57,11.60
2013,08,09,04,58,11.50
2013,08,09,04,59,11.40
2013,08,09,05,00,11.40
2013,08,09,05,01,11.40
2013,08,09,05,02,11.40
2013,08,09,05,03,11.40
2013,08,09,05,04,11.40
2013,08,09,05,05,11.40
2013,08,09,05,06,11.40
2013,08,09,05,07,11.40
2013,08,09,05,08,11.40
2013,08,09,05,09,11.40
2013,08,09,05,10,11.40
2013,08,09,05,11,11.40
2013,08,09,05,12,11.40
2013,08,09,05,13,11.40
2013,08,09,05,14,11.30
2013,08,09,05,15,11.30
2013,08,09,05,16,11.30
2013,08,09,05,17,11.30
2013,08,09,05,18,11.30
2013,08,09,05,19,11.30
2013,08,09,05,20,11.30
2013,08,09,05,21,11.20
2013,08,09,05,22,11.20
2013,08,09,05,23,11.20
2013,08,09,05,24,11.20
2013,08,09,05,25,11.10
2013,08,09,05,26,11.10
2013,08,09,05,27,11.10
2013,08,09,05,28,11.10
2013,08,09,05,29,11.10
2013,08,09,05,30,11.10
2013,08,09,05,31,11.10
2013,08,09,05,32,11.20
2013,08,09,05,33,11.20
2013,08,09,05,34,11.20
2013,08,09,05,35,11.20
2013,08,09,05,36,11.20
2013,08,09,05,37,11.20
2013,08,09,05,38,11.20
2013,08,09,05,39,11.20
2013,08,09,05,40,11.20
2013,08,09,05,41,11.20
2013,08,09,05,42,11.20
2013,08,09,05,43,11.20
2013,08,09,05,44,11.20
2013,08,09,05,45,11.20
2013,08,09,05,46,11.30
2013,08,09,05,47,11.30
2013,08,09,05,48,11.30
2013,08,09,05,49,11.30
2013,08,09,05,50,11.30
2013,08,09,05,51,11.30
2013,08,09,05,52,11.30
2013,08,09,05,53,11.30
2013,08,09,05,54,11.40
2013,08,09,05,55,11.40
2013,08,09,05,56,11.40
2013,08,09,05,57,11.40
2013,08,09,05,58,11.40
2013,08,09,05,59,11.40
2013,08,09,06,00,11.40
2013,08,09,06,01,11.40
2013,08,09,06,02,11.40
2013,08,09,06,03,11.40
2013,08,09,06,04,11.40
2013,08,09,06,05,11.40
2013,08,09,06,06,11.30
2013,08,09,06,07,11.30
2013,08,09,06,08,11.30
2013,08,09,06,09,11.30
2013,08,09,06,10,11.20
2013,08,09,06,11,11.20
2013,08,09,06,12,11.20
2013,08,09,06,13,11.20
2013,08,09,06,14,11.10
2013,08,09,06,15,11.10
2013,08,09,06,16,11.10
2013,08,09,06,17,11.10
2013,08,09,06,18,11.10
2013,08,09,06,19,11.10
2013,08,09,06,20,11.10
2013,08,09,06,21,11.10
2013,08,09,06,22,11.10
2013,08,09,06,23,11.10
2013,08,09,06,24,11.10
2013,08,09,06,25,11.10
2013,08,09,06,26,11.10
2013,08,09,06,27,11.10
2013,08,09,06,28,11.10
2013,08,09,06,29,11.10
2013,08,09,06,30,11.10
2013,08,09,06,31,11.10
2013,08,09,06,32,11.10
2013,08,09,06,33,11.10
2013,08,09,06,34,11.10
2013,08,09,06,35,11.10
2013,08,09,06,36,11.10
2013,08,09,06,37,11.10
2013,08,09,06,38,11.10
2013,08,09,06,39,11.10
2013,08,09,06,40,11.10
2013,08,09,06,41,11.10
2013,08,09,06,42,11.10
2013,08,09,06,43,11.10
2013,08,09,06,44,11.10
2013,08,09,06,45,11.10
2013,08,09,06,46,11.10
2013,08,09,06,47,11.10
2013,08,09,06,48,11.10
2013,08,09,06,49,11.10
2013,08,09,06,50,11.20
2013,08,09,06,51,11.20
2013,08,09,06,52,11.30
2013,08,09,06,53,11.30
2013,08,09,06,54,11.30
2013,08,09,06,55,11.40
2013,08,09,06,56,11.40
2013,08,09,06,57,11.40
2013,08,09,06,58,11.40
2013,08,09,06,59,11.40
2013,08,09,07,00,11.40
2013,08,09,07,01,11.40
2013,08,09,07,02,11.40
2013,08,09,07,03,11.40
2013,08,09,07,04,11.50
2013,08,09,07,05,11.60
2013,08,09,07,06,11.60
2013,08,09,07,07,11.60
2013,08,09,07,08,11.60
2013,08,09,07,09,11.60
2013,08,09,07,10,11.70
2013,08,09,07,11,11.70
2013,08,09,07,12,11.80
2013,08,09,07,13,11.80
2013,08,09,07,14,11.80
2013,08,09,07,15,11.90
2013,08,09,07,16,12.00
2013,08,09,07,17,12.00
2013,08,09,07,18,12.10
2013,08,09,07,19,12.20
2013,08,09,07,20,12.30
2013,08,09,07,21,12.30
2013,08,09,07,22,12.40
2013,08,09,07,23,12.50
2013,08,09,07,24,12.50
2013,08,09,07,25,12.60
2013,08,09,07,26,12.60
2013,08,09,07,27,12.60
2013,08,09,07,28,12.70
2013,08,09,07,29,12.70
2013,08,09,07,30,12.70
2013,08,09,07,31,12.70
2013,08,09,07,32,12.60
2013,08,09,07,33,12.60
2013,08,09,07,34,12.50
2013,08,09,07,35,12.50
2013,08,09,07,36,12.60
2013,08,09,07,37,12.60
2013,08,09,07,38,12.70
2013,08,09,07,39,12.70
2013,08,09,07,40,12.80
2013,08,09,07,41,12.80
2013,08,09,07,42,12.80
2013,08,09,07,43,12.80
2013,08,09,07,44,12.80
2013,08,09,07,45,12.80
2013,08,09,07,46,12.90
2013,08,09,07,47,12.90
2013,08,09,07,48,13.00
2013,08,09,07,49,13.00
2013,08,09,07,50,13.00
2013,08,09,07,51,13.10
2013,08,09,07,52,13.10
2013,08,09,07,53,13.20
2013,08,09,07,54,13.30
2013,08,09,07,55,13.30
2013,08,09,07,56,13.40
2013,08,09,07,57,13.40
2013,08,09,07,58,13.50
2013,08,09,07,59,13.60
2013,08,09,08,00,13.60
2013,08,09,08,01,13.60
2013,08,09,08,02,13.60
2013,08,09,08,03,13.60
2013,08,09,08,04,13.70
2013,08,09,08,05,13.70
2013,08,09,08,06,13.70
2013,08,09,08,07,13.80
2013,08,09,08,08,13.80
2013,08,09,08,09,13.90
2013,08,09,08,10,13.90
2013,08,09,08,11,14.00
2013,08,09,08,12,14.10
2013,08,09,08,13,14.20
2013,08,09,08,14,14.20
2013,08,09,08,15,14.30
2013,08,09,08,16,14.40
2013,08,09,08,17,14.50
2013,08,09,08,18,14.60
2013,08,09,08,19,14.80
2013,08,09,08,20,14.90
2013,08,09,08,21,15.00
2013,08,09,08,22,15.10
2013,08,09,08,23,15.30
2013,08,09,08,24,15.30
2013,08,09,08,25,15.40
2013,08,09,08,26,15.50
2013,08,09,08,27,15.60
2013,08,09,08,28,15.70
2013,08,09,08,29,15.80
2013,08,09,08,30,15.90
2013,08,09,08,31,16.00
2013,08,09,08,32,16.10
2013,08,09,08,33,16.20
2013,08,09,08,34,16.30
2013,08,09,08,35,16.40
2013,08,09,08,36,16.50
2013,08,09,08,37,16.60
2013,08,09,08,38,16.70
2013,08,09,08,39,16.90
2013,08,09,08,40,16.90
2013,08,09,08,41,17.00
2013,08,09,08,42,17.20
2013,08,09,08,43,17.30
2013,08,09,08,44,17.40
2013,08,09,08,45,17.50
2013,08,09,08,46,17.70
2013,08,09,08,47,17.80
2013,08,09,08,48,17.90
2013,08,09,08,49,18.10
2013,08,09,08,50,18.20
2013,08,09,08,51,18.40
2013,08,09,08,52,18.50
2013,08,09,08,53,18.60
2013,08,09,08,54,18.70
2013,08,09,08,55,18.90
2013,08,09,08,56,19.00
2013,08,09,08,57,19.10
2013,08,09,08,58,19.30
2013,08,09,08,59,19.40
2013,08,09,09,00,19.60
2013,08,09,09,01,19.70
2013,08,09,09,02,19.90
2013,08,09,09,03,19.90
2013,08,09,09,04,20.10
2013,08,09,09,05,20.20
2013,08,09,09,06,20.10
2013,08,09,09,07,20.10
2013,08,09,09,08,20.10
2013,08,09,09,09,20.20
2013,08,09,09,10,20.20
2013,08,09,09,11,20.30
2013,08,09,09,12,20.40
2013,08,09,09,13,20.50
2013,08,09,09,14,20.50
2013,08,09,09,15,20.60
2013,08,09,09,16,20.70
2013,08,09,09,17,20.70
2013,08,09,09,18,20.80
2013,08,09,09,19,20.90
2013,08,09,09,20,21.00
2013,08,09,09,21,21.20
2013,08,09,09,22,21.20
2013,08,09,09,23,21.20
2013,08,09,09,24,21.10
2013,08,09,09,25,20.90
2013,08,09,09,26,20.40
2013,08,09,09,27,19.70
2013,08,09,09,28,19.00
2013,08,09,09,29,18.50
2013,08,09,09,30,18.10
2013,08,09,09,31,17.70
2013,08,09,09,32,17.40
2013,08,09,09,33,17.00
2013,08,09,09,34,16.70
2013,08,09,09,35,16.40
2013,08,09,09,36,16.10
2013,08,09,09,37,15.90
2013,08,09,09,38,15.80
2013,08,09,09,39,15.70
2013,08,09,09,40,15.70
2013,08,09,09,41,15.70
2013,08,09,09,42,15.80
2013,08,09,09,43,15.70
2013,08,09,09,44,15.70
2013,08,09,09,45,15.70
2013,08,09,09,46,15.80
2013,08,09,09,47,15.80
2013,08,09,09,48,15.90
2013,08,09,09,49,16.10
2013,08,09,09,50,16.30
2013,08,09,09,51,16.50
2013,08,09,09,52,16.70
2013,08,09,09,53,16.90
2013,08,09,09,54,17.00
2013,08,09,09,55,17.20
2013,08,09,09,56,17.30
2013,08,09,09,57,17.50
2013,08,09,09,58,17.60
2013,08,09,09,59,17.80
2013,08,09,10,00,17.90
2013,08,09,10,01,17.90
2013,08,09,10,02,18.10
2013,08,09,10,03,18.20
2013,08,09,10,04,18.40
2013,08,09,10,05,18.50
2013,08,09,10,06,18.70
2013,08,09,10,07,18.80
2013,08,09,10,08,18.90
2013,08,09,10,09,19.10
2013,08,09,10,10,19.20
2013,08,09,10,11,19.30
2013,08,09,10,12,19.40
2013,08,09,10,13,19.50
2013,08,09,10,14,19.60
2013,08,09,10,15,19.70
2013,08,09,10,16,19.80
2013,08,09,10,17,19.90
2013,08,09,10,18,20.10
2013,08,09,10,19,20.30
2013,08,09,10,20,20.50
2013,08,09,10,21,20.70
2013,08,09,10,22,20.90
2013,08,09,10,23,21.10
2013,08,09,10,24,21.30
2013,08,09,10,25,21.30
2013,08,09,10,26,21.50
2013,08,09,10,27,21.60
2013,08,09,10,28,21.60
2013,08,09,10,29,21.60
2013,08,09,10,30,21.60
2013,08,09,10,31,21.50
2013,08,09,10,32,21.40
2013,08,09,10,33,21.20
2013,08,09,10,34,21.00
2013,08,09,10,35,20.90
2013,08,09,10,36,20.90
2013,08,09,10,37,20.80
2013,08,09,10,38,20.80
2013,08,09,10,39,20.80
2013,08,09,10,40,20.80
2013,08,09,10,41,20.80
2013,08,09,10,42,20.90
2013,08,09,10,43,20.80
2013,08,09,10,44,20.80
2013,08,09,10,45,20.70
2013,08,09,10,46,20.60
2013,08,09,10,47,20.60
2013,08,09,10,48,20.60
2013,08,09,10,49,20.50
2013,08,09,10,50,20.30
2013,08,09,10,51,20.20
2013,08,09,10,52,20.00
2013,08,09,10,53,19.90
2013,08,09,10,54,20.00
2013,08,09,10,55,20.10
2013,08,09,10,56,20.00
2013,08,09,10,57,19.90
2013,08,09,10,58,19.90
2013,08,09,10,59,19.90
2013,08,09,11,00,19.90
2013,08,09,11,01,19.90
2013,08,09,11,02,19.90
2013,08,09,11,03,19.90
2013,08,09,11,04,19.90
2013,08,09,11,05,19.70
2013,08,09,11,06,19.60
2013,08,09,11,07,19.50
2013,08,09,11,08,19.30
2013,08,09,11,09,19.30
2013,08,09,11,10,19.30
2013,08,09,11,11,19.20
2013,08,09,11,12,19.10
2013,08,09,11,13,18.90
2013,08,09,11,14,18.80
2013,08,09,11,15,18.70
2013,08,09,11,16,18.70
2013,08,09,11,17,18.60
2013,08,09,11,18,18.70
2013,08,09,11,19,18.80
2013,08,09,11,20,19.00
2013,08,09,11,21,19.10
2013,08,09,11,22,19.40
2013,08,09,11,23,19.70
2013,08,09,11,24,19.90
2013,08,09,11,25,20.10
2013,08,09,11,26,20.30
2013,08,09,11,27,20.50
2013,08,09,11,28,20.70
2013,08,09,11,29,20.80
2013,08,09,11,30,21.00
2013,08,09,11,31,21.30
2013,08,09,11,32,21.40
2013,08,09,11,33,21.60
2013,08,09,11,34,21.90
2013,08,09,11,35,22.00
2013,08,09,11,36,22.20
2013,08,09,11,37,22.40
2013,08,09,11,38,22.60
2013,08,09,11,39,22.70
2013,08,09,11,40,22.90
2013,08,09,11,41,23.00
2013,08,09,11,42,23.10
2013,08,09,11,43,23.20
2013,08,09,11,44,23.30
2013,08,09,11,45,23.30
2013,08,09,11,46,23.30
2013,08,09,11,47,23.40
2013,08,09,11,48,23.50
2013,08,09,11,49,23.60
2013,08,09,11,50,23.60
2013,08,09,11,51,23.60
2013,08,09,11,52,23.70
2013,08,09,11,53,23.70
2013,08,09,11,54,23.60
2013,08,09,11,55,23.60
2013,08,09,11,56,23.50
2013,08,09,11,57,23.50
2013,08,09,11,58,23.60
2013,08,09,11,59,23.60
2013,08,09,12,00,23.70
2013,08,09,12,01,23.80
2013,08,09,12,02,23.80
2013,08,09,12,03,23.90
2013,08,09,12,04,24.00
2013,08,09,12,05,24.10
2013,08,09,12,06,24.10
2013,08,09,12,07,24.20
2013,08,09,12,08,24.20
2013,08,09,12,09,24.30
2013,08,09,12,10,24.30
2013,08,09,12,11,24.30
2013,08,09,12,12,24.30
2013,08,09,12,13,24.30
2013,08,09,12,14,24.40
2013,08,09,12,15,24.50
2013,08,09,12,16,24.60
2013,08,09,12,17,24.60
2013,08,09,12,18,24.70
2013,08,09,12,19,24.80
2013,08,09,12,20,24.80
2013,08,09,12,21,24.80
2013,08,09,12,22,24.80
2013,08,09,12,23,24.90
2013,08,09,12,24,25.00
2013,08,09,12,25,25.00
2013,08,09,12,26,25.10
2013,08,09,12,27,25.10
2013,08,09,12,28,25.10
2013,08,09,12,29,25.20
2013,08,09,12,30,25.20
2013,08,09,12,31,25.20
2013,08,09,12,32,25.30
2013,08,09,12,33,25.30
2013,08,09,12,34,25.40
2013,08,09,12,35,25.40
2013,08,09,12,36,25.50
2013,08,09,12,37,25.50
2013,08,09,12,38,25.50
2013,08,09,12,39,25.60
2013,08,09,12,40,25.70
2013,08,09,12,41,25.70
2013,08,09,12,42,25.60
2013,08,09,12,43,25.60
2013,08,09,12,44,25.70
2013,08,09,12,45,25.70
2013,08,09,12,46,25.60
2013,08,09,12,47,25.60
2013,08,09,12,48,25.60
2013,08,09,12,49,25.60
2013,08,09,12,50,25.70
2013,08,09,12,51,25.70
2013,08,09,12,52,25.70
2013,08,09,12,53,25.80
2013,08,09,12,54,25.80
2013,08,09,12,55,25.80
2013,08,09,12,56,25.80
2013,08,09,12,57,25.90
2013,08,09,12,58,25.90
2013,08,09,12,59,26.00
2013,08,09,13,00,26.00
2013,08,09,13,01,26.10
2013,08,09,13,02,25.90
2013,08,09,13,03,25.50
2013,08,09,13,04,25.10
2013,08,09,13,05,24.80
2013,08,09,13,06,24.40
2013,08,09,13,07,24.00
2013,08,09,13,08,23.60
2013,08,09,13,09,23.30
2013,08,09,13,10,23.10
2013,08,09,13,11,23.10
2013,08,09,13,12,23.10
2013,08,09,13,13,23.10
2013,08,09,13,14,23.10
2013,08,09,13,15,23.20
2013,08,09,13,16,23.20
2013,08,09,13,17,23.20
2013,08,09,13,18,23.20
2013,08,09,13,19,23.20
2013,08,09,13,20,23.20
2013,08,09,13,21,23.30
2013,08,09,13,22,23.30
2013,08,09,13,23,23.40
2013,08,09,13,24,23.50
2013,08,09,13,25,23.70
2013,08,09,13,26,23.80
2013,08,09,13,27,23.80
2013,08,09,13,28,23.90
2013,08,09,13,29,24.00
2013,08,09,13,30,24.10
2013,08,09,13,31,24.00
2013,08,09,13,32,23.90
2013,08,09,13,33,23.80
2013,08,09,13,34,23.70
2013,08,09,13,35,23.70
2013,08,09,13,36,23.70
2013,08,09,13,37,23.80
2013,08,09,13,38,23.80
2013,08,09,13,39,24.00
2013,08,09,13,40,24.10
2013,08,09,13,41,24.20
2013,08,09,13,42,24.30
2013,08,09,13,43,24.30
2013,08,09,13,44,24.40
2013,08,09,13,45,24.50
2013,08,09,13,46,24.50
2013,08,09,13,47,24.60
2013,08,09,13,48,24.50
2013,08,09,13,49,24.40
2013,08,09,13,50,24.40
2013,08,09,13,51,24.40
2013,08,09,13,52,24.40
2013,08,09,13,53,24.40
2013,08,09,13,54,24.40
2013,08,09,13,55,24.20
2013,08,09,13,56,24.10
2013,08,09,13,57,24.20
2013,08,09,13,58,24.30
2013,08,09,13,59,24.30
2013,08,09,14,00,24.20
2013,08,09,14,01,24.10
2013,08,09,14,02,24.00
2013,08,09,14,03,23.90
2013,08,09,14,04,24.00
2013,08,09,14,05,24.10
2013,08,09,14,06,24.10
2013,08,09,14,07,24.10
2013,08,09,14,08,24.20
2013,08,09,14,09,24.30
2013,08,09,14,10,24.40
2013,08,09,14,11,24.40
2013,08,09,14,12,24.50
2013,08,09,14,13,24.50
2013,08,09,14,14,24.70
2013,08,09,14,15,24.80
2013,08,09,14,16,24.80
2013,08,09,14,17,24.80
2013,08,09,14,18,24.60
2013,08,09,14,19,24.60
2013,08,09,14,20,24.70
2013,08,09,14,21,24.80
2013,08,09,14,22,24.90
2013,08,09,14,23,25.10
2013,08,09,14,24,25.10
2013,08,09,14,25,25.20
2013,08,09,14,26,25.30
2013,08,09,14,27,25.40
2013,08,09,14,28,25.40
2013,08,09,14,29,25.30
2013,08,09,14,30,25.10
2013,08,09,14,31,25.00
2013,08,09,14,32,24.90
2013,08,09,14,33,24.90
2013,08,09,14,34,24.90
2013,08,09,14,35,24.80
2013,08,09,14,36,24.80
2013,08,09,14,37,24.80
2013,08,09,14,38,24.80
2013,08,09,14,39,24.80
2013,08,09,14,40,24.80
2013,08,09,14,41,24.70
2013,08,09,14,42,24.80
2013,08,09,14,43,24.80
2013,08,09,14,44,25.00
2013,08,09,14,45,25.00
2013,08,09,14,46,25.10
2013,08,09,14,47,25.20
2013,08,09,14,48,25.20
2013,08,09,14,49,25.20
2013,08,09,14,50,25.20
2013,08,09,14,51,25.20
2013,08,09,14,52,25.30
2013,08,09,14,53,25.40
2013,08,09,14,54,25.40
2013,08,09,14,55,25.50
2013,08,09,14,56,25.40
2013,08,09,14,57,25.10
2013,08,09,14,58,24.90
2013,08,09,14,59,24.80
2013,08,09,15,00,24.80
2013,08,09,15,01,24.80
2013,08,09,15,02,24.80
2013,08,09,15,03,24.90
2013,08,09,15,04,24.90
2013,08,09,15,05,25.00
2013,08,09,15,06,25.10
2013,08,09,15,07,25.00
2013,08,09,15,08,25.10
2013,08,09,15,09,25.20
2013,08,09,15,10,25.30
2013,08,09,15,11,25.30
2013,08,09,15,12,25.40
2013,08,09,15,13,25.50
2013,08,09,15,14,25.50
2013,08,09,15,15,25.50
2013,08,09,15,16,25.50
2013,08,09,15,17,25.60
2013,08,09,15,18,25.60
2013,08,09,15,19,25.60
2013,08,09,15,20,25.60
2013,08,09,15,21,25.70
2013,08,09,15,22,25.70
2013,08,09,15,23,25.80
2013,08,09,15,24,25.80
2013,08,09,15,25,25.90
2013,08,09,15,26,25.90
2013,08,09,15,27,26.00
2013,08,09,15,28,26.00
2013,08,09,15,29,26.00
2013,08,09,15,30,25.90
2013,08,09,15,31,25.90
2013,08,09,15,32,25.70
2013,08,09,15,33,25.70
2013,08,09,15,34,25.70
2013,08,09,15,35,25.70
2013,08,09,15,36,25.70
2013,08,09,15,37,25.70
2013,08,09,15,38,25.80
2013,08,09,15,39,25.80
2013,08,09,15,40,25.90
2013,08,09,15,41,25.90
2013,08,09,15,42,25.90
2013,08,09,15,43,25.90
2013,08,09,15,44,25.90
2013,08,09,15,45,26.00
2013,08,09,15,46,26.10
2013,08,09,15,47,26.10
2013,08,09,15,48,26.20
2013,08,09,15,49,26.30
2013,08,09,15,50,26.40
2013,08,09,15,51,26.40
2013,08,09,15,52,26.40
2013,08,09,15,53,26.40
2013,08,09,15,54,26.40
2013,08,09,15,55,26.40
2013,08,09,15,56,26.40
2013,08,09,15,57,26.30
2013,08,09,15,58,26.30
2013,08,09,15,59,26.20
2013,08,09,16,00,26.10
2013,08,09,16,01,26.00
2013,08,09,16,02,25.90
2013,08,09,16,03,25.70
2013,08,09,16,04,25.80
2013,08,09,16,05,25.80
2013,08,09,16,06,25.90
2013,08,09,16,07,26.00
2013,08,09,16,08,26.00
2013,08,09,16,09,26.10
2013,08,09,16,10,26.20
2013,08,09,16,11,26.30
2013,08,09,16,12,26.40
2013,08,09,16,13,26.40
2013,08,09,16,14,26.40
2013,08,09,16,15,26.60
2013,08,09,16,16,26.70
2013,08,09,16,17,26.70
2013,08,09,16,18,26.80
2013,08,09,16,19,26.80
2013,08,09,16,20,26.80
2013,08,09,16,21,26.80
2013,08,09,16,22,26.90
2013,08,09,16,23,26.90
2013,08,09,16,24,26.90
2013,08,09,16,25,26.90
2013,08,09,16,26,26.80
2013,08,09,16,27,26.80
2013,08,09,16,28,26.70
2013,08,09,16,29,26.70
2013,08,09,16,30,26.70
2013,08,09,16,31,26.70
2013,08,09,16,32,26.70
2013,08,09,16,33,26.60
2013,08,09,16,34,26.60
2013,08,09,16,35,26.50
2013,08,09,16,36,26.40
2013,08,09,16,37,26.30
2013,08,09,16,38,26.20
2013,08,09,16,39,26.20
2013,08,09,16,40,26.10
2013,08,09,16,41,26.00
2013,08,09,16,42,25.80
2013,08,09,16,43,25.80
2013,08,09,16,44,25.70
2013,08,09,16,45,25.70
2013,08,09,16,46,25.70
2013,08,09,16,47,25.60
2013,08,09,16,48,25.50
2013,08,09,16,49,25.40
2013,08,09,16,50,25.30
2013,08,09,16,51,25.30
2013,08,09,16,52,25.20
2013,08,09,16,53,25.20
2013,08,09,16,54,25.10
2013,08,09,16,55,25.00
2013,08,09,16,56,25.00
2013,08,09,16,57,24.90
2013,08,09,16,58,24.90
2013,08,09,16,59,24.90
2013,08,09,17,00,24.90
2013,08,09,17,01,24.90
2013,08,09,17,02,24.90
2013,08,09,17,03,24.80
2013,08,09,17,04,24.80
2013,08,09,17,05,24.90
2013,08,09,17,06,24.90
2013,08,09,17,07,24.90
2013,08,09,17,08,24.90
2013,08,09,17,09,25.00
2013,08,09,17,10,25.00
2013,08,09,17,11,25.00
2013,08,09,17,12,25.00
2013,08,09,17,13,25.00
2013,08,09,17,14,24.90
2013,08,09,17,15,24.90
2013,08,09,17,16,24.90
2013,08,09,17,17,24.90
2013,08,09,17,18,24.80
2013,08,09,17,19,24.80